Year,Month,Day,Hour,Minute,Value (Times are PST for insolation in W/m^2)
2022,07,07,00,00,0.00
2022,07,07,00,01,0.00
2022,07,07,00,02,0.00
2022,07,07,00,03,0.00
2022,07,07,00,04,0.00
2022,07,07,00,05,0.00
2022,07,07,00,06,0.00
2022,07,07,00,07,0.00
2022,07,07,00,08,0.00
2022,07,07,00,09,0.00
2022,07,07,00,10,0.00
2022,07,07,00,11,0.00
2022,07,07,00,12,0.00
2022,07,07,00,13,0.00
2022,07,07,00,14,0.00
2022,07,07,00,15,0.00
2022,07,07,00,16,0.00
2022,07,07,00,17,0.00
2022,07,07,00,18,0.00
2022,07,07,00,19,0.00
2022,07,07,00,20,0.00
2022,07,07,00,21,0.00
2022,07,07,00,22,0.00
2022,07,07,00,23,0.00
2022,07,07,00,24,0.00
2022,07,07,00,25,0.00
2022,07,07,00,26,0.00
2022,07,07,00,27,0.00
2022,07,07,00,28,0.00
2022,07,07,00,29,0.00
2022,07,07,00,30,0.00
2022,07,07,00,31,0.00
2022,07,07,00,32,0.00
2022,07,07,00,33,0.00
2022,07,07,00,34,0.00
2022,07,07,00,35,0.00
2022,07,07,00,36,0.00
2022,07,07,00,37,0.00
2022,07,07,00,38,0.00
2022,07,07,00,39,0.00
2022,07,07,00,40,0.00
2022,07,07,00,41,0.00
2022,07,07,00,42,0.00
2022,07,07,00,43,0.00
2022,07,07,00,44,0.00
2022,07,07,00,45,0.00
2022,07,07,00,46,0.00
2022,07,07,00,47,0.00
2022,07,07,00,48,0.00
2022,07,07,00,49,0.00
2022,07,07,00,50,0.00
2022,07,07,00,51,0.00
2022,07,07,00,52,0.00
2022,07,07,00,53,0.00
2022,07,07,00,54,0.00
2022,07,07,00,55,0.00
2022,07,07,00,56,0.00
2022,07,07,00,57,0.00
2022,07,07,00,58,0.00
2022,07,07,00,59,0.00
2022,07,07,01,00,0.00
2022,07,07,01,01,0.00
2022,07,07,01,02,0.00
2022,07,07,01,03,0.00
2022,07,07,01,04,0.00
2022,07,07,01,05,0.00
2022,07,07,01,06,0.00
2022,07,07,01,07,0.00
2022,07,07,01,08,0.00
2022,07,07,01,09,0.00
2022,07,07,01,10,0.00
2022,07,07,01,11,0.00
2022,07,07,01,12,0.00
2022,07,07,01,13,0.00
2022,07,07,01,14,0.00
2022,07,07,01,15,0.00
2022,07,07,01,16,0.00
2022,07,07,01,17,0.00
2022,07,07,01,18,0.00
2022,07,07,01,19,0.00
2022,07,07,01,20,0.00
2022,07,07,01,21,0.00
2022,07,07,01,22,0.00
2022,07,07,01,23,0.00
2022,07,07,01,24,0.00
2022,07,07,01,25,0.00
2022,07,07,01,26,0.00
2022,07,07,01,27,0.00
2022,07,07,01,28,0.00
2022,07,07,01,29,0.00
2022,07,07,01,30,0.00
2022,07,07,01,31,0.00
2022,07,07,01,32,0.00
2022,07,07,01,33,0.00
2022,07,07,01,34,0.00
2022,07,07,01,35,0.00
2022,07,07,01,36,0.00
2022,07,07,01,37,0.00
2022,07,07,01,38,0.00
2022,07,07,01,39,0.00
2022,07,07,01,40,0.00
2022,07,07,01,41,0.00
2022,07,07,01,42,0.00
2022,07,07,01,43,0.00
2022,07,07,01,44,0.00
2022,07,07,01,45,0.00
2022,07,07,01,46,0.00
2022,07,07,01,47,0.00
2022,07,07,01,48,0.00
2022,07,07,01,49,0.00
2022,07,07,01,50,0.00
2022,07,07,01,51,0.00
2022,07,07,01,52,0.00
2022,07,07,01,53,0.00
2022,07,07,01,54,0.00
2022,07,07,01,55,0.00
2022,07,07,01,56,0.00
2022,07,07,01,57,0.00
2022,07,07,01,58,0.00
2022,07,07,01,59,0.00
2022,07,07,02,00,0.00
2022,07,07,02,01,0.00
2022,07,07,02,02,0.00
2022,07,07,02,03,0.00
2022,07,07,02,04,0.00
2022,07,07,02,05,0.00
2022,07,07,02,06,0.00
2022,07,07,02,07,0.00
2022,07,07,02,08,0.00
2022,07,07,02,09,0.00
2022,07,07,02,10,0.00
2022,07,07,02,11,0.00
2022,07,07,02,12,0.00
2022,07,07,02,13,0.00
2022,07,07,02,14,0.00
2022,07,07,02,15,0.00
2022,07,07,02,16,0.00
2022,07,07,02,17,0.00
2022,07,07,02,18,0.00
2022,07,07,02,19,0.00
2022,07,07,02,20,0.00
2022,07,07,02,21,0.00
2022,07,07,02,22,0.00
2022,07,07,02,23,0.00
2022,07,07,02,24,0.00
2022,07,07,02,25,0.00
2022,07,07,02,26,0.00
2022,07,07,02,27,0.00
2022,07,07,02,28,0.00
2022,07,07,02,29,0.00
2022,07,07,02,30,0.00
2022,07,07,02,31,0.00
2022,07,07,02,32,0.00
2022,07,07,02,33,0.00
2022,07,07,02,34,0.00
2022,07,07,02,35,0.00
2022,07,07,02,36,0.00
2022,07,07,02,37,0.00
2022,07,07,02,38,0.00
2022,07,07,02,39,0.00
2022,07,07,02,40,0.00
2022,07,07,02,41,0.00
2022,07,07,02,42,0.00
2022,07,07,02,43,0.00
2022,07,07,02,44,0.00
2022,07,07,02,45,0.00
2022,07,07,02,46,0.00
2022,07,07,02,47,0.00
2022,07,07,02,48,0.00
2022,07,07,02,49,0.00
2022,07,07,02,50,0.00
2022,07,07,02,51,0.00
2022,07,07,02,52,0.00
2022,07,07,02,53,0.00
2022,07,07,02,54,0.00
2022,07,07,02,55,0.00
2022,07,07,02,56,0.00
2022,07,07,02,57,0.00
2022,07,07,02,58,0.00
2022,07,07,02,59,0.00
2022,07,07,03,00,0.00
2022,07,07,03,01,0.00
2022,07,07,03,02,0.00
2022,07,07,03,03,0.00
2022,07,07,03,04,0.00
2022,07,07,03,05,0.00
2022,07,07,03,06,0.00
2022,07,07,03,07,0.00
2022,07,07,03,08,0.00
2022,07,07,03,09,0.00
2022,07,07,03,10,0.00
2022,07,07,03,11,0.00
2022,07,07,03,12,0.00
2022,07,07,03,13,0.00
2022,07,07,03,14,0.00
2022,07,07,03,15,0.00
2022,07,07,03,16,0.00
2022,07,07,03,17,0.00
2022,07,07,03,18,0.00
2022,07,07,03,19,0.00
2022,07,07,03,20,0.00
2022,07,07,03,21,0.00
2022,07,07,03,22,0.00
2022,07,07,03,23,0.00
2022,07,07,03,24,0.00
2022,07,07,03,25,0.00
2022,07,07,03,26,0.00
2022,07,07,03,27,0.00
2022,07,07,03,28,0.00
2022,07,07,03,29,0.00
2022,07,07,03,30,0.00
2022,07,07,03,31,0.00
2022,07,07,03,32,0.00
2022,07,07,03,33,0.00
2022,07,07,03,34,0.00
2022,07,07,03,35,0.00
2022,07,07,03,36,0.00
2022,07,07,03,37,0.00
2022,07,07,03,38,0.00
2022,07,07,03,39,0.00
2022,07,07,03,40,0.00
2022,07,07,03,41,0.00
2022,07,07,03,42,0.00
2022,07,07,03,43,0.00
2022,07,07,03,44,0.00
2022,07,07,03,45,0.00
2022,07,07,03,46,0.00
2022,07,07,03,47,0.00
2022,07,07,03,48,0.00
2022,07,07,03,49,0.00
2022,07,07,03,50,0.00
2022,07,07,03,51,0.00
2022,07,07,03,52,0.00
2022,07,07,03,53,0.00
2022,07,07,03,54,0.00
2022,07,07,03,55,0.00
2022,07,07,03,56,0.00
2022,07,07,03,57,0.00
2022,07,07,03,58,0.00
2022,07,07,03,59,0.00
2022,07,07,04,00,0.00
2022,07,07,04,01,0.00
2022,07,07,04,02,0.00
2022,07,07,04,03,0.00
2022,07,07,04,04,0.00
2022,07,07,04,05,0.00
2022,07,07,04,06,0.00
2022,07,07,04,07,0.00
2022,07,07,04,08,0.00
2022,07,07,04,09,0.00
2022,07,07,04,10,0.00
2022,07,07,04,11,0.00
2022,07,07,04,12,0.00
2022,07,07,04,13,0.00
2022,07,07,04,14,0.00
2022,07,07,04,15,0.00
2022,07,07,04,16,0.00
2022,07,07,04,17,0.00
2022,07,07,04,18,0.00
2022,07,07,04,19,0.00
2022,07,07,04,20,0.00
2022,07,07,04,21,0.00
2022,07,07,04,22,0.00
2022,07,07,04,23,0.00
2022,07,07,04,24,0.00
2022,07,07,04,25,0.00
2022,07,07,04,26,0.00
2022,07,07,04,27,0.00
2022,07,07,04,28,0.00
2022,07,07,04,29,0.00
2022,07,07,04,30,0.00
2022,07,07,04,31,0.00
2022,07,07,04,32,0.00
2022,07,07,04,33,0.00
2022,07,07,04,34,0.00
2022,07,07,04,35,0.00
2022,07,07,04,36,0.00
2022,07,07,04,37,0.00
2022,07,07,04,38,0.00
2022,07,07,04,39,0.00
2022,07,07,04,40,0.00
2022,07,07,04,41,0.00
2022,07,07,04,42,0.00
2022,07,07,04,43,0.00
2022,07,07,04,44,0.00
2022,07,07,04,45,0.00
2022,07,07,04,46,0.00
2022,07,07,04,47,0.00
2022,07,07,04,48,0.00
2022,07,07,04,49,0.00
2022,07,07,04,50,0.00
2022,07,07,04,51,0.00
2022,07,07,04,52,0.00
2022,07,07,04,53,0.00
2022,07,07,04,54,0.00
2022,07,07,04,55,0.00
2022,07,07,04,56,0.00
2022,07,07,04,57,0.00
2022,07,07,04,58,0.00
2022,07,07,04,59,0.00
2022,07,07,05,00,0.00
2022,07,07,05,01,0.00
2022,07,07,05,02,0.00
2022,07,07,05,03,0.00
2022,07,07,05,04,0.00
2022,07,07,05,05,0.00
2022,07,07,05,06,0.00
2022,07,07,05,07,0.00
2022,07,07,05,08,0.00
2022,07,07,05,09,0.00
2022,07,07,05,10,0.00
2022,07,07,05,11,0.00
2022,07,07,05,12,0.00
2022,07,07,05,13,0.00
2022,07,07,05,14,0.00
2022,07,07,05,15,0.00
2022,07,07,05,16,0.00
2022,07,07,05,17,0.00
2022,07,07,05,18,0.00
2022,07,07,05,19,0.00
2022,07,07,05,20,0.00
2022,07,07,05,21,0.00
2022,07,07,05,22,0.00
2022,07,07,05,23,0.00
2022,07,07,05,24,0.00
2022,07,07,05,25,0.00
2022,07,07,05,26,0.00
2022,07,07,05,27,0.00
2022,07,07,05,28,0.00
2022,07,07,05,29,0.00
2022,07,07,05,30,0.00
2022,07,07,05,31,0.00
2022,07,07,05,32,0.00
2022,07,07,05,33,0.00
2022,07,07,05,34,0.00
2022,07,07,05,35,0.00
2022,07,07,05,36,0.00
2022,07,07,05,37,0.00
2022,07,07,05,38,0.00
2022,07,07,05,39,2.00
2022,07,07,05,40,5.00
2022,07,07,05,41,5.00
2022,07,07,05,42,5.00
2022,07,07,05,43,5.00
2022,07,07,05,44,5.00
2022,07,07,05,45,6.80
2022,07,07,05,46,7.00
2022,07,07,05,47,7.00
2022,07,07,05,48,7.50
2022,07,07,05,49,9.00
2022,07,07,05,50,9.00
2022,07,07,05,51,10.00
2022,07,07,05,52,11.00
2022,07,07,05,53,11.00
2022,07,07,05,54,11.80
2022,07,07,05,55,12.00
2022,07,07,05,56,12.00
2022,07,07,05,57,12.20
2022,07,07,05,58,14.00
2022,07,07,05,59,14.00
2022,07,07,06,00,14.00
2022,07,07,06,01,14.80
2022,07,07,06,02,16.00
2022,07,07,06,03,17.20
2022,07,07,06,04,18.00
2022,07,07,06,05,18.80
2022,07,07,06,06,19.00
2022,07,07,06,07,19.00
2022,07,07,06,08,19.20
2022,07,07,06,09,21.00
2022,07,07,06,10,21.00
2022,07,07,06,11,21.60
2022,07,07,06,12,23.90
2022,07,07,06,13,25.50
2022,07,07,06,14,27.20
2022,07,07,06,15,28.00
2022,07,07,06,16,29.50
2022,07,07,06,17,32.50
2022,07,07,06,18,34.90
2022,07,07,06,19,39.30
2022,07,07,06,20,42.80
2022,07,07,06,21,46.30
2022,07,07,06,22,47.00
2022,07,07,06,23,46.60
2022,07,07,06,24,46.50
2022,07,07,06,25,46.40
2022,07,07,06,26,46.00
2022,07,07,06,27,44.50
2022,07,07,06,28,44.00
2022,07,07,06,29,45.80
2022,07,07,06,30,47.20
2022,07,07,06,31,49.40
2022,07,07,06,32,51.00
2022,07,07,06,33,50.30
2022,07,07,06,34,49.80
2022,07,07,06,35,51.00
2022,07,07,06,36,52.20
2022,07,07,06,37,53.70
2022,07,07,06,38,54.00
2022,07,07,06,39,55.60
2022,07,07,06,40,57.80
2022,07,07,06,41,60.00
2022,07,07,06,42,60.00
2022,07,07,06,43,60.00
2022,07,07,06,44,60.00
2022,07,07,06,45,60.00
2022,07,07,06,46,60.00
2022,07,07,06,47,60.00
2022,07,07,06,48,60.00
2022,07,07,06,49,60.00
2022,07,07,06,50,61.60
2022,07,07,06,51,62.00
2022,07,07,06,52,62.10
2022,07,07,06,53,63.00
2022,07,07,06,54,64.10
2022,07,07,06,55,67.70
2022,07,07,06,56,70.20
2022,07,07,06,57,73.00
2022,07,07,06,58,75.80
2022,07,07,06,59,78.40
2022,07,07,07,00,79.00
2022,07,07,07,01,79.00
2022,07,07,07,02,79.00
2022,07,07,07,03,79.00
2022,07,07,07,04,79.00
2022,07,07,07,05,79.50
2022,07,07,07,06,80.30
2022,07,07,07,07,79.00
2022,07,07,07,08,79.00
2022,07,07,07,09,79.00
2022,07,07,07,10,79.00
2022,07,07,07,11,79.00
2022,07,07,07,12,80.60
2022,07,07,07,13,79.20
2022,07,07,07,14,76.90
2022,07,07,07,15,76.00
2022,07,07,07,16,76.30
2022,07,07,07,17,77.70
2022,07,07,07,18,79.80
2022,07,07,07,19,80.00
2022,07,07,07,20,79.00
2022,07,07,07,21,79.00
2022,07,07,07,22,80.50
2022,07,07,07,23,83.60
2022,07,07,07,24,84.00
2022,07,07,07,25,92.20
2022,07,07,07,26,108.20
2022,07,07,07,27,139.00
2022,07,07,07,28,154.30
2022,07,07,07,29,134.10
2022,07,07,07,30,147.00
2022,07,07,07,31,135.70
2022,07,07,07,32,128.60
2022,07,07,07,33,188.00
2022,07,07,07,34,151.40
2022,07,07,07,35,179.00
2022,07,07,07,36,155.50
2022,07,07,07,37,155.50
2022,07,07,07,38,170.50
2022,07,07,07,39,156.70
2022,07,07,07,40,160.00
2022,07,07,07,41,166.00
2022,07,07,07,42,166.60
2022,07,07,07,43,163.60
2022,07,07,07,44,164.50
2022,07,07,07,45,163.40
2022,07,07,07,46,163.00
2022,07,07,07,47,163.00
2022,07,07,07,48,163.40
2022,07,07,07,49,166.10
2022,07,07,07,50,171.30
2022,07,07,07,51,179.70
2022,07,07,07,52,186.50
2022,07,07,07,53,190.40
2022,07,07,07,54,200.20
2022,07,07,07,55,200.20
2022,07,07,07,56,199.00
2022,07,07,07,57,193.50
2022,07,07,07,58,192.90
2022,07,07,07,59,191.60
2022,07,07,08,00,190.00
2022,07,07,08,01,190.00
2022,07,07,08,02,190.90
2022,07,07,08,03,192.00
2022,07,07,08,04,205.00
2022,07,07,08,05,196.30
2022,07,07,08,06,184.20
2022,07,07,08,07,181.40
2022,07,07,08,08,181.00
2022,07,07,08,09,181.20
2022,07,07,08,10,183.90
2022,07,07,08,11,189.90
2022,07,07,08,12,195.70
2022,07,07,08,13,194.10
2022,07,07,08,14,186.50
2022,07,07,08,15,183.00
2022,07,07,08,16,183.00
2022,07,07,08,17,188.30
2022,07,07,08,18,190.00
2022,07,07,08,19,190.00
2022,07,07,08,20,187.70
2022,07,07,08,21,184.30
2022,07,07,08,22,180.50
2022,07,07,08,23,176.60
2022,07,07,08,24,167.90
2022,07,07,08,25,162.50
2022,07,07,08,26,163.80
2022,07,07,08,27,166.40
2022,07,07,08,28,167.00
2022,07,07,08,29,170.40
2022,07,07,08,30,178.30
2022,07,07,08,31,186.50
2022,07,07,08,32,192.60
2022,07,07,08,33,196.10
2022,07,07,08,34,199.30
2022,07,07,08,35,199.60
2022,07,07,08,36,199.00
2022,07,07,08,37,199.00
2022,07,07,08,38,201.00
2022,07,07,08,39,208.90
2022,07,07,08,40,215.30
2022,07,07,08,41,216.00
2022,07,07,08,42,214.00
2022,07,07,08,43,213.80
2022,07,07,08,44,213.20
2022,07,07,08,45,216.20
2022,07,07,08,46,223.30
2022,07,07,08,47,228.00
2022,07,07,08,48,227.80
2022,07,07,08,49,224.30
2022,07,07,08,50,223.00
2022,07,07,08,51,228.90
2022,07,07,08,52,236.30
2022,07,07,08,53,244.30
2022,07,07,08,54,250.00
2022,07,07,08,55,250.00
2022,07,07,08,56,251.10
2022,07,07,08,57,255.10
2022,07,07,08,58,261.50
2022,07,07,08,59,267.50
2022,07,07,09,00,269.00
2022,07,07,09,01,267.50
2022,07,07,09,02,264.50
2022,07,07,09,03,264.00
2022,07,07,09,04,264.10
2022,07,07,09,05,266.30
2022,07,07,09,06,275.10
2022,07,07,09,07,285.00
2022,07,07,09,08,290.10
2022,07,07,09,09,297.00
2022,07,07,09,10,298.10
2022,07,07,09,11,299.00
2022,07,07,09,12,300.50
2022,07,07,09,13,301.90
2022,07,07,09,14,302.00
2022,07,07,09,15,302.00
2022,07,07,09,16,302.80
2022,07,07,09,17,306.60
2022,07,07,09,18,309.00
2022,07,07,09,19,312.60
2022,07,07,09,20,316.40
2022,07,07,09,21,320.50
2022,07,07,09,22,322.00
2022,07,07,09,23,324.20
2022,07,07,09,24,322.50
2022,07,07,09,25,318.40
2022,07,07,09,26,319.90
2022,07,07,09,27,351.70
2022,07,07,09,28,342.70
2022,07,07,09,29,373.70
2022,07,07,09,30,367.00
2022,07,07,09,31,373.30
2022,07,07,09,32,383.20
2022,07,07,09,33,443.80
2022,07,07,09,34,448.70
2022,07,07,09,35,443.00
2022,07,07,09,36,443.00
2022,07,07,09,37,488.40
2022,07,07,09,38,552.00
2022,07,07,09,39,552.00
2022,07,07,09,40,497.00
2022,07,07,09,41,393.50
2022,07,07,09,42,428.50
2022,07,07,09,43,417.40
2022,07,07,09,44,392.00
2022,07,07,09,45,480.10
2022,07,07,09,46,506.00
2022,07,07,09,47,838.70
2022,07,07,09,48,862.10
2022,07,07,09,49,851.70
2022,07,07,09,50,843.80
2022,07,07,09,51,837.60
2022,07,07,09,52,836.10
2022,07,07,09,53,836.50
2022,07,07,09,54,840.40
2022,07,07,09,55,846.80
2022,07,07,09,56,857.50
2022,07,07,09,57,872.00
2022,07,07,09,58,887.60
2022,07,07,09,59,906.00
2022,07,07,10,00,902.50
2022,07,07,10,01,905.50
2022,07,07,10,02,811.40
2022,07,07,10,03,770.00
2022,07,07,10,04,770.00
2022,07,07,10,05,744.00
2022,07,07,10,06,726.00
2022,07,07,10,07,726.00
2022,07,07,10,08,618.90
2022,07,07,10,09,601.00
2022,07,07,10,10,601.00
2022,07,07,10,11,601.00
2022,07,07,10,12,597.20
2022,07,07,10,13,587.00
2022,07,07,10,14,587.00
2022,07,07,10,15,587.00
2022,07,07,10,16,587.00
2022,07,07,10,17,474.50
2022,07,07,10,18,423.50
2022,07,07,10,19,472.00
2022,07,07,10,20,410.00
2022,07,07,10,21,386.80
2022,07,07,10,22,385.90
2022,07,07,10,23,387.50
2022,07,07,10,24,379.20
2022,07,07,10,25,376.00
2022,07,07,10,26,372.50
2022,07,07,10,27,370.20
2022,07,07,10,28,375.80
2022,07,07,10,29,358.70
2022,07,07,10,30,360.80
2022,07,07,10,31,360.10
2022,07,07,10,32,351.50
2022,07,07,10,33,364.30
2022,07,07,10,34,350.40
2022,07,07,10,35,346.70
2022,07,07,10,36,351.90
2022,07,07,10,37,362.00
2022,07,07,10,38,374.70
2022,07,07,10,39,393.00
2022,07,07,10,40,436.90
2022,07,07,10,41,465.10
2022,07,07,10,42,468.00
2022,07,07,10,43,468.00
2022,07,07,10,44,520.00
2022,07,07,10,45,754.00
2022,07,07,10,46,754.00
2022,07,07,10,47,754.00
2022,07,07,10,48,754.00
2022,07,07,10,49,583.80
2022,07,07,10,50,452.40
2022,07,07,10,51,452.20
2022,07,07,10,52,434.30
2022,07,07,10,53,427.40
2022,07,07,10,54,424.00
2022,07,07,10,55,424.50
2022,07,07,10,56,428.90
2022,07,07,10,57,437.30
2022,07,07,10,58,467.00
2022,07,07,10,59,509.00
2022,07,07,11,00,556.20
2022,07,07,11,01,544.50
2022,07,07,11,02,493.50
2022,07,07,11,03,474.80
2022,07,07,11,04,453.90
2022,07,07,11,05,428.40
2022,07,07,11,06,424.20
2022,07,07,11,07,433.40
2022,07,07,11,08,436.70
2022,07,07,11,09,457.00
2022,07,07,11,10,473.00
2022,07,07,11,11,473.00
2022,07,07,11,12,473.00
2022,07,07,11,13,473.00
2022,07,07,11,14,473.00
2022,07,07,11,15,473.00
2022,07,07,11,16,473.00
2022,07,07,11,17,497.90
2022,07,07,11,18,595.50
2022,07,07,11,19,545.70
2022,07,07,11,20,514.40
2022,07,07,11,21,501.00
2022,07,07,11,22,488.80
2022,07,07,11,23,480.00
2022,07,07,11,24,473.10
2022,07,07,11,25,466.90
2022,07,07,11,26,461.50
2022,07,07,11,27,453.50
2022,07,07,11,28,447.10
2022,07,07,11,29,442.50
2022,07,07,11,30,441.70
2022,07,07,11,31,443.00
2022,07,07,11,32,444.50
2022,07,07,11,33,449.50
2022,07,07,11,34,454.00
2022,07,07,11,35,458.00
2022,07,07,11,36,463.10
2022,07,07,11,37,467.60
2022,07,07,11,38,473.50
2022,07,07,11,39,479.60
2022,07,07,11,40,489.50
2022,07,07,11,41,502.20
2022,07,07,11,42,516.60
2022,07,07,11,43,537.00
2022,07,07,11,44,558.30
2022,07,07,11,45,567.80
2022,07,07,11,46,577.60
2022,07,07,11,47,564.50
2022,07,07,11,48,559.20
2022,07,07,11,49,559.20
2022,07,07,11,50,562.60
2022,07,07,11,51,572.40
2022,07,07,11,52,589.50
2022,07,07,11,53,617.60
2022,07,07,11,54,641.50
2022,07,07,11,55,687.10
2022,07,07,11,56,651.20
2022,07,07,11,57,626.00
2022,07,07,11,58,624.30
2022,07,07,11,59,624.00
2022,07,07,12,00,687.80
2022,07,07,12,01,657.30
2022,07,07,12,02,660.30
2022,07,07,12,03,683.00
2022,07,07,12,04,696.30
2022,07,07,12,05,713.00
2022,07,07,12,06,734.60
2022,07,07,12,07,754.00
2022,07,07,12,08,873.60
2022,07,07,12,09,911.00
2022,07,07,12,10,911.00
2022,07,07,12,11,623.90
2022,07,07,12,12,642.00
2022,07,07,12,13,642.00
2022,07,07,12,14,620.20
2022,07,07,12,15,579.00
2022,07,07,12,16,565.00
2022,07,07,12,17,559.70
2022,07,07,12,18,552.80
2022,07,07,12,19,549.50
2022,07,07,12,20,588.00
2022,07,07,12,21,565.40
2022,07,07,12,22,545.70
2022,07,07,12,23,533.00
2022,07,07,12,24,531.40
2022,07,07,12,25,530.30
2022,07,07,12,26,531.70
2022,07,07,12,27,520.50
2022,07,07,12,28,516.20
2022,07,07,12,29,514.30
2022,07,07,12,30,513.00
2022,07,07,12,31,516.50
2022,07,07,12,32,523.70
2022,07,07,12,33,564.20
2022,07,07,12,34,638.40
2022,07,07,12,35,659.90
2022,07,07,12,36,674.50
2022,07,07,12,37,685.90
2022,07,07,12,38,750.00
2022,07,07,12,39,762.60
2022,07,07,12,40,761.00
2022,07,07,12,41,873.80
2022,07,07,12,42,901.00
2022,07,07,12,43,900.00
2022,07,07,12,44,900.00
2022,07,07,12,45,865.50
2022,07,07,12,46,685.20
2022,07,07,12,47,631.00
2022,07,07,12,48,652.00
2022,07,07,12,49,652.00
2022,07,07,12,50,670.90
2022,07,07,12,51,711.30
2022,07,07,12,52,683.00
2022,07,07,12,53,734.00
2022,07,07,12,54,744.00
2022,07,07,12,55,757.40
2022,07,07,12,56,891.00
2022,07,07,12,57,891.00
2022,07,07,12,58,967.00
2022,07,07,12,59,1088.00
2022,07,07,13,00,1060.50
2022,07,07,13,01,1034.80
2022,07,07,13,02,1011.40
2022,07,07,13,03,974.10
2022,07,07,13,04,974.50
2022,07,07,13,05,963.60
2022,07,07,13,06,952.50
2022,07,07,13,07,945.70
2022,07,07,13,08,939.20
2022,07,07,13,09,935.50
2022,07,07,13,10,933.00
2022,07,07,13,11,933.00
2022,07,07,13,12,933.00
2022,07,07,13,13,934.40
2022,07,07,13,14,938.10
2022,07,07,13,15,941.60
2022,07,07,13,16,945.80
2022,07,07,13,17,951.60
2022,07,07,13,18,958.70
2022,07,07,13,19,964.20
2022,07,07,13,20,974.00
2022,07,07,13,21,966.40
2022,07,07,13,22,984.00
2022,07,07,13,23,1033.40
2022,07,07,13,24,1042.00
2022,07,07,13,25,1042.00
2022,07,07,13,26,1071.10
2022,07,07,13,27,991.50
2022,07,07,13,28,983.00
2022,07,07,13,29,983.00
2022,07,07,13,30,983.00
2022,07,07,13,31,953.50
2022,07,07,13,32,902.00
2022,07,07,13,33,902.00
2022,07,07,13,34,902.00
2022,07,07,13,35,1008.40
2022,07,07,13,36,1102.80
2022,07,07,13,37,1122.10
2022,07,07,13,38,1123.00
2022,07,07,13,39,1123.00
2022,07,07,13,40,1123.00
2022,07,07,13,41,1123.00
2022,07,07,13,42,1123.00
2022,07,07,13,43,1123.00
2022,07,07,13,44,1123.00
2022,07,07,13,45,1123.00
2022,07,07,13,46,1123.00
2022,07,07,13,47,1123.00
2022,07,07,13,48,703.30
2022,07,07,13,49,610.00
2022,07,07,13,50,958.00
2022,07,07,13,51,958.00
2022,07,07,13,52,958.00
2022,07,07,13,53,958.00
2022,07,07,13,54,980.70
2022,07,07,13,55,1011.00
2022,07,07,13,56,1011.00
2022,07,07,13,57,1011.00
2022,07,07,13,58,1011.00
2022,07,07,13,59,810.40
2022,07,07,14,00,777.00
2022,07,07,14,01,555.50
2022,07,07,14,02,572.20
2022,07,07,14,03,579.50
2022,07,07,14,04,570.50
2022,07,07,14,05,539.40
2022,07,07,14,06,500.00
2022,07,07,14,07,496.60
2022,07,07,14,08,496.30
2022,07,07,14,09,483.80
2022,07,07,14,10,482.60
2022,07,07,14,11,489.40
2022,07,07,14,12,502.50
2022,07,07,14,13,540.90
2022,07,07,14,14,548.50
2022,07,07,14,15,553.00
2022,07,07,14,16,606.10
2022,07,07,14,17,602.50
2022,07,07,14,18,537.40
2022,07,07,14,19,507.30
2022,07,07,14,20,536.10
2022,07,07,14,21,535.60
2022,07,07,14,22,548.50
2022,07,07,14,23,593.20
2022,07,07,14,24,538.30
2022,07,07,14,25,504.20
2022,07,07,14,26,488.70
2022,07,07,14,27,480.00
2022,07,07,14,28,475.50
2022,07,07,14,29,476.80
2022,07,07,14,30,465.30
2022,07,07,14,31,450.60
2022,07,07,14,32,439.50
2022,07,07,14,33,432.10
2022,07,07,14,34,420.90
2022,07,07,14,35,409.80
2022,07,07,14,36,401.90
2022,07,07,14,37,398.00
2022,07,07,14,38,396.00
2022,07,07,14,39,400.00
2022,07,07,14,40,425.10
2022,07,07,14,41,441.00
2022,07,07,14,42,647.40
2022,07,07,14,43,672.20
2022,07,07,14,44,668.00
2022,07,07,14,45,459.10
2022,07,07,14,46,439.10
2022,07,07,14,47,429.90
2022,07,07,14,48,432.10
2022,07,07,14,49,450.50
2022,07,07,14,50,489.80
2022,07,07,14,51,526.20
2022,07,07,14,52,534.00
2022,07,07,14,53,534.00
2022,07,07,14,54,534.00
2022,07,07,14,55,534.00
2022,07,07,14,56,534.00
2022,07,07,14,57,534.00
2022,07,07,14,58,534.00
2022,07,07,14,59,502.00
2022,07,07,15,00,428.90
2022,07,07,15,01,388.50
2022,07,07,15,02,352.10
2022,07,07,15,03,321.30
2022,07,07,15,04,302.20
2022,07,07,15,05,294.70
2022,07,07,15,06,292.10
2022,07,07,15,07,290.40
2022,07,07,15,08,294.20
2022,07,07,15,09,296.10
2022,07,07,15,10,300.10
2022,07,07,15,11,302.90
2022,07,07,15,12,305.00
2022,07,07,15,13,306.00
2022,07,07,15,14,307.40
2022,07,07,15,15,308.00
2022,07,07,15,16,306.30
2022,07,07,15,17,306.00
2022,07,07,15,18,283.50
2022,07,07,15,19,266.50
2022,07,07,15,20,251.70
2022,07,07,15,21,239.70
2022,07,07,15,22,231.00
2022,07,07,15,23,226.00
2022,07,07,15,24,225.00
2022,07,07,15,25,225.00
2022,07,07,15,26,228.10
2022,07,07,15,27,229.90
2022,07,07,15,28,231.90
2022,07,07,15,29,236.30
2022,07,07,15,30,239.70
2022,07,07,15,31,243.80
2022,07,07,15,32,247.50
2022,07,07,15,33,250.40
2022,07,07,15,34,253.00
2022,07,07,15,35,256.80
2022,07,07,15,36,260.70
2022,07,07,15,37,264.30
2022,07,07,15,38,272.80
2022,07,07,15,39,284.50
2022,07,07,15,40,292.50
2022,07,07,15,41,298.30
2022,07,07,15,42,305.40
2022,07,07,15,43,310.50
2022,07,07,15,44,315.30
2022,07,07,15,45,320.60
2022,07,07,15,46,326.50
2022,07,07,15,47,333.80
2022,07,07,15,48,349.10
2022,07,07,15,49,386.50
2022,07,07,15,50,455.70
2022,07,07,15,51,539.60
2022,07,07,15,52,526.00
2022,07,07,15,53,612.70
2022,07,07,15,54,844.00
2022,07,07,15,55,844.00
2022,07,07,15,56,648.00
2022,07,07,15,57,429.00
2022,07,07,15,58,402.10
2022,07,07,15,59,387.70
2022,07,07,16,00,379.00
2022,07,07,16,01,379.90
2022,07,07,16,02,412.60
2022,07,07,16,03,353.20
2022,07,07,16,04,321.80
2022,07,07,16,05,313.50
2022,07,07,16,06,323.00
2022,07,07,16,07,370.10
2022,07,07,16,08,407.10
2022,07,07,16,09,431.60
2022,07,07,16,10,435.00
2022,07,07,16,11,419.10
2022,07,07,16,12,400.40
2022,07,07,16,13,352.10
2022,07,07,16,14,321.50
2022,07,07,16,15,301.10
2022,07,07,16,16,281.00
2022,07,07,16,17,262.10
2022,07,07,16,18,256.00
2022,07,07,16,19,253.50
2022,07,07,16,20,252.40
2022,07,07,16,21,263.80
2022,07,07,16,22,268.70
2022,07,07,16,23,270.80
2022,07,07,16,24,278.10
2022,07,07,16,25,279.40
2022,07,07,16,26,281.50
2022,07,07,16,27,283.00
2022,07,07,16,28,282.10
2022,07,07,16,29,281.00
2022,07,07,16,30,279.80
2022,07,07,16,31,278.30
2022,07,07,16,32,278.00
2022,07,07,16,33,276.30
2022,07,07,16,34,276.00
2022,07,07,16,35,279.50
2022,07,07,16,36,286.30
2022,07,07,16,37,293.40
2022,07,07,16,38,298.50
2022,07,07,16,39,301.40
2022,07,07,16,40,302.00
2022,07,07,16,41,302.00
2022,07,07,16,42,300.00
2022,07,07,16,43,297.50
2022,07,07,16,44,295.20
2022,07,07,16,45,298.80
2022,07,07,16,46,304.40
2022,07,07,16,47,308.00
2022,07,07,16,48,308.80
2022,07,07,16,49,312.50
2022,07,07,16,50,315.00
2022,07,07,16,51,337.00
2022,07,07,16,52,393.90
2022,07,07,16,53,418.00
2022,07,07,16,54,418.00
2022,07,07,16,55,640.00
2022,07,07,16,56,677.00
2022,07,07,16,57,708.00
2022,07,07,16,58,644.00
2022,07,07,16,59,671.00
2022,07,07,17,00,629.00
2022,07,07,17,01,545.00
2022,07,07,17,02,545.00
2022,07,07,17,03,545.00
2022,07,07,17,04,545.00
2022,07,07,17,05,482.70
2022,07,07,17,06,386.60
2022,07,07,17,07,312.10
2022,07,07,17,08,351.60